Location: Street
(51.1247°N, 2.7429°W)
Time: 09:44:25
(UTC+00:00)

Tiros 1 - Pass Details

Date: 04 December 2020
Orbit: 630 x 663 km, 48.4° (Epoch: 28 January)

Event Time Altitude Azimuth Distance (km) Brightness Sun altitude
Rises 17:17:58 0° 274° (W) 2,996 11.8 -10.8°
Reaches altitude 10° 17:20:22 10° 270° (W) 2,081 11.0 -11.1°
Maximum altitude 17:25:03 54° 194° (SSW) 801 7.8 -11.8°
Drops below altitude 10° 17:29:42 10° 117° (ESE) 2,064 9.3 -12.5°
Enters shadow 17:30:12 - 116° (ESE) 2,254 9.5 -12.5°
Sets 17:32:03 0° 113° (ESE) 2,969 - -12.8°
